Orbital Elements at Epoch 2459200.5 (2020-Dec-17.0) TDB
Reference: JPL 18 (heliocentric ecliptic J2000)
Element | Value | Uncertainty (1-sigma) | Units |
e | .07921644342052389 | 4.5454e-08 | |
a | 3.190798551776672 | 2.3514e-08 | au |
q | 2.938034838833566 | 1.5268e-07 | au |
i | 1.393935986712483 | 5.0056e-06 | deg |
node | 43.95834180036879 | 0.00015137 | deg |
peri | 335.3606974988651 | 0.00015355 | deg |
M | 263.2301283414487 | 2.8107e-05 | deg |
tp | 2459760.109618604284 (2022-Jun-29.60961860) | 0.00016573 | TDB |
period | 2081.840755234068 5.70 | 2.3012e-05 6.3e-08 | d yr |
n | .1729238891567016 | 1.9115e-09 | deg/d |
Q | 3.443562264719779 | 2.5376e-08 | au |
|
| | Orbit Determination Parameters
Additional Information
|